Weather in Zhernovka

Russia / Novosibirsk Oblast     54°20′05″N   84°41′24″E
temp.,
°C
wind,
m/s
gust,
m/s
humid.,
%
clouds,
%
prec.,
mm/h
press.,
hPa
HPBL,
m
23 october, sat
sat2301:00+2ssw512666 0.0 1026810
04:00+1ssw61367100 0.0 1026879
07:00+1ssw6146156 0.0 10261022
10:00+2ssw7165987 0.0 10251329
13:00+5ssw81752100 0.0 10231423
16:00+5ssw81752100 0.0 10211340
19:00+3ssw82179100 0.8 10211379
22:00+4sw91885100 1.9 10201330
24 october, sun
sun2401:00+4sw81790100 2.6 10201129
04:00+5sw81685100 0.4 10201024
07:00+5sw81676100 0.5 10201083
10:00+6sw81670100 0.1 10201065
13:00+6sw71474100 0.1 10201051
16:00+7sw71371100 0.0 1021980
19:00+7sw6147490 0.3 1022764
22:00+7sw5147890 0.4 1023590
25 october, mon
mon2501:00+5sw41286100 0.8 1023370
04:00+5ssw31188100 0.0 1023328
07:00+6ssw41176100 0.0 1022395
10:00+6ssw51468100 0.0 1020558
13:00+9ssw6146077 0.0 1018780
16:00+10sw6135797 0.0 1017986
19:00+9sw5136273 0.0 1019663
22:00+7sw397293 0.0 1020309
26 october, tue
tue2601:00+6sw237535 0.0 102176
04:00+4sse1181100 0.0 102110
07:00+3sse2384100 0.0 102069
10:00+5sse387482 0.0 1018237
13:00+8s4855100 0.0 1015403
16:00+9sse41056100 0.0 1012437
19:00+8ssw51462100 0.0 1010556
22:00+8sw51751100 0.0 1010609
27 october, wed
wed2701:00+7sw51551100 0.0 1011467
04:00+5wsw4106199 0.0 1014395
07:00+4nw4785100 0.0 1018707
10:00+1nw3577100 0.9 1022515
13:00+2nw3347100 0.9 1024817
16:00+3nw234385 0.0 1026869
19:00−1n116185 0.0 102815
22:00−1nne1163100 0.0 102921